Location: Lucerne Valley
(34.4439°N, 116.9669°E)
Time: 14:49:55
(UTC-07:00)

Tiangong 1 - Pass Details

Date: 16 October 2017
Orbit: 293 x 320 km, 42.8° (Epoch: 20 October)

Event Time Altitude Azimuth Distance (km) Brightness Sun altitude
Rises 03:48:54 0° 298° (WNW) 2,037 5.9 -15.6°
Reaches altitude 10° 03:50:53 10° 299° (WNW) 1,201 4.5 -16.0°
Maximum altitude 03:53:35 87° 28° (NNE) 312 0.5 -16.6°
Enters shadow 03:53:47 73° 108° (ESE) 324 0.4 -16.6°
